Simultaneous Nadir Overpasses (SNOs) Predictions

Prediction of SNOs between LANDSAT-8 and METOP-B Satellite Orbit:

Table of predicted SNOs for the next 14.0 days since TLE Epoch: 1/24/2014
Index Date (LANDSAT-8) Time (LANDSAT-8) Lat,Lon (LANDSAT-8) SZA (LANDSAT-8 ) Date (METOP-B) Time (METOP-B) Lat,Lon (METOP-B) SZA (METOP-B ) Distance(km) Time Diff (sec)
1 01/26/2014 00:44:42 -81.07, 27.73 78.58 01/26/2014 00:44:22 -81.07, 27.72 78.59 0.51 20
2 01/26/2014 01:34:07 81.10,-164.21 101.47 01/26/2014 01:35:01 81.10,-164.16 101.50 1.08 54
3 01/28/2014 20:18:54 -81.09, 94.47 79.28 01/28/2014 20:18:42 -81.08, 94.34 79.30 2.35 12
4 01/28/2014 21:08:19 81.12, -97.48 100.78 01/28/2014 21:09:21 81.11, -97.51 100.79 0.91 62
5 01/31/2014 15:53:08 -81.07, 160.68 80.09 01/31/2014 15:53:04 -81.07, 160.55 80.10 2.31 4
6
